User: anonymous   Login
Location: Lucerne Valley
(34.4439°N, 116.9669°E)
Time: 01:10:33
(UTC-08:00)
Language:

Tiangong 2 - Orbit

View from above orbital plane
View from above orbital plane
View from above satellite
View from above satellite

Ground track
Ground track

The orbit data is extracted from the following two-line orbital elements,

1 41765U 16057A   18023.75286809 +.00004396 +00000-0 +57051-4 0  9995
2 41765 042.7832 123.6680 0004201 318.4735 178.0788 15.60186227077411
Epoch (UTC): 23 January 2018 18:04:07
Eccentricity: 0.0004201
inclination: 42.7832°
perigee height: 384 km
apogee height: 390 km
right ascension of ascending node: 123.6680°
argument of perigee: 318.4735°
revolutions per day: 15.60186227
mean anomaly at epoch: 178.0788°
orbit number at epoch: 7741

The dashed part of the orbit path shows where the satellite is in the earth's shadow,  

DLR